Location: Caltech
(34.1382°N, 118.1253°W)
Time: 06:26:32
(UTC-07:00)

Sapphire - Visible Passes

Search period start: 16 September 2014 00:00
Search period end: 26 September 2014 00:00
Orbit: 786 x 796 km, 67.1° (Epoch: 15 September)

Date Brightness Start Highest point End Pass type
(mag) Time Alt. Az. Time Alt. Az. Time Alt. Az.
16 Sep ? 22:21:56 10° NNW 22:22:54 15° NNW 22:22:54 15° NNW visible
17 Sep ? 21:51:41 10° N 21:53:17 19° N 21:53:17 19° N visible
18 Sep ? 21:21:31 10° N 21:23:43 21° NNE 21:23:43 21° NNE visible
19 Sep ? 20:51:29 10° N 20:54:11 20° NNE 20:54:11 20° NNE visible
19 Sep ? 22:34:05 10° NW 22:34:56 14° NW 22:34:56 14° NW visible
20 Sep ? 20:21:40 10° NNE 20:24:42 16° NE 20:24:42 16° NE visible
20 Sep ? 22:03:30 10° NNW 22:05:27 23° NW 22:05:27 23° NW visible
21 Sep ? 19:52:19 10° NNE 19:54:18 12° NE 19:55:17 11° ENE visible
21 Sep ? 21:33:01 10° NNW 21:36:03 34° NNW 21:36:03 34° NNW visible
22 Sep ? 21:02:38 10° NNW 21:06:42 48° N 21:06:42 48° N visible
23 Sep ? 20:32:20 10° NNW 20:37:26 45° ENE 20:37:26 45° ENE visible
23 Sep ? 22:16:42 10° WNW 22:18:12 15° WNW 22:18:12 15° WNW visible
24 Sep ? 20:02:08 10° N 20:07:00 33° ENE 20:08:16 29° E visible
24 Sep ? 21:45:41 10° NW 21:49:03 26° W 21:49:03 26° W visible
25 Sep ? 19:32:04 10° N 19:36:25 24° NE 19:39:13 16° E visible
25 Sep ? 21:14:54 10° NW 21:19:57 41° WSW 21:20:00 41° WSW visible
